Погода в Сновицах

Россия / Владимирская область     56°10′24″N   40°21′14″E
темп.,
°C
ветер,
м/с
пор.,
м/с
влажн.,
%
обл.,
%
осадки,
мм/ч
давл.,
гПа
погр.,
м
21 октября, чт
чт2100:000ю91898100 3.2 1007698
03:00+2ююз91896100 5.1 1003763
06:00+5ююз91897100 1.7 998668
09:00+7юз91895100 3.6 996598
12:00+10зюз9188698 0.1 997845
15:00+11зюз71583100 0.1 997792
18:00+10юз61591100 0.0 998548
21:00+10юз71491100 0.0 997496
22 октября, пт
пт2200:00+9ююз71588100 0.0 995532
03:00+9юз81785100 0.0 993631
06:00+9юз81781100 0.0 993722
09:00+10юз91577100 0.0 9931010
12:00+12зюз814684 0.1 9941475
15:00+11зюз10176824 0.6 9951602
18:00+8зюз915685 0.1 9981110
21:00+7зюз8146899 0.1 1000967
23 октября, сб
сб2300:00+6юз71371100 0.0 1001969
03:00+6юз71375100 0.0 1002808
06:00+5юз71376100 0.0 1002708
09:00+6юз7127585 0.0 10031025
12:00+8юз8116465 0.0 10031232
15:00+7юз71169100 0.1 10041540
18:00+6юз7126796 0.1 1004952
21:00+3зюз71395100 0.3 1006855
24 октября, вс
вс2400:00+4зюз6118184 0.5 1006671
03:00+2зюз5118670 0.5 1007396
06:00+3юз51082100 0.0 1007494
09:00+3зюз51087100 0.0 1008711
12:00+3зюз4796100 0.3 1009731
15:00+2зсз4898100 0.7 1011508
18:00+2ссз5109397 0.4 1013609
21:00+1ссз7119078 0.6 1016719
25 октября, пн
пн2500:000с71077100 0.1 10191009
03:00−1ссз6118495 0.1 1022686
06:00−2ссз5128610 0.0 1025565
09:00−1ссз49797 0.0 1027578
12:00+2ссз57565 0.0 1029824
15:00+3сз4656100 0.0 1030859
18:000з3672100 0.0 1031117
21:00−1зюз377977 0.0 1031139